Change the Weather History Date:

Friday, November 8, 2013

  Actual Average Record
Temperature  
Mean Temperature 30 °F -  
Max Temperature 42 °F 45 °F 80 °F (1999)
Min Temperature 19 °F 26 °F 4 °F (1991)
Degree Days  
Heating Degree Days 34    
Moisture  
Dew Point 30 °F    
Average Humidity 85    
Maximum Humidity 100    
Minimum Humidity 65    
Precipitation  
Precipitation 0.00 in - - ()
Sea Level Pressure  
Sea Level Pressure 29.86 in    
Wind  
Wind Speed 5 mph (SSE)    
Max Wind Speed 22 mph    
Max Gust Speed 25 mph    
Visibility 9 miles    
Events Rain    
Averages and records for this station are not official NWS values.
T = Trace of Precipitation, MM = Missing Value Source: NWS Daily Summary

Daily Weather History Graph

Daily Weather History Graph

Search for Another Location

Airport or City:

Trip Planner

Search our weather history database for the weather conditions in past years. The results will help you decide how hot, cold, wet, or windy it might be!

Date:

Astronomy

Nov. 08, 2013 Rise Set
Actual Time 7:06 AM CST 4:56 PM CST
Civil Twilight 6:35 AM CST 5:27 PM CST
Nautical Twilight 6:00 AM CST 6:02 PM CST
Astronomical Twilight 5:25 AM CST 6:37 PM CST
Moon 12:03 PM CST (11/8) 10:19 PM CST (11/8)
Length of Visible Light 10h 52m
Length of Day
9h 49m
Waxing Crescent, 33% of the Moon is Illuminated
Nov 8
Waxing Crescent
Nov 9
First Quarter
Nov 17
Full
Nov 25
Last Quarter
Dec 2
New

Hourly Weather History & Observations

Time (CST) Temp. Windchill Dew Point Humidity Pressure Visibility Wind Dir Wind Speed Gust Speed Precip Events Conditions
12:13 AM 26.6 °F - 26.6 °F 100% 30.17 in 7.0 mi Calm Calm - N/A   Clear
12:32 AM 26.6 °F - 26.6 °F 100% 30.17 in 5.0 mi Calm Calm - N/A   Clear
12:53 AM 24.8 °F - 24.8 °F 100% 30.17 in 4.0 mi Calm Calm - N/A   Clear
1:12 AM 26.6 °F - 26.6 °F 100% 30.17 in 4.0 mi Calm Calm - N/A   Clear
1:33 AM 26.6 °F - 26.6 °F 100% 30.16 in 5.0 mi Calm Calm - N/A   Clear
1:53 AM 26.6 °F - 26.6 °F 100% 30.16 in 5.0 mi Calm Calm - N/A   Clear
2:12 AM 26.6 °F - 26.6 °F 100% 30.16 in 7.0 mi Calm Calm - N/A   Clear
2:33 AM 26.6 °F - 26.6 °F 100% 30.15 in 5.0 mi Calm Calm - N/A   Clear
2:53 AM 21.2 °F - 21.2 °F 100% 30.15 in 2.5 mi Calm Calm - N/A   Clear
3:12 AM 19.4 °F - 19.4 °F 100% 30.15 in 4.0 mi Calm Calm - N/A   Clear
3:33 AM 21.2 °F - 21.2 °F 100% 30.14 in 4.0 mi Calm Calm - N/A   Clear
3:53 AM 24.8 °F - 24.8 °F 100% 30.13 in 5.0 mi Calm Calm - N/A   Clear
4:12 AM 26.6 °F - 26.6 °F 100% 30.13 in 7.0 mi Calm Calm - N/A   Clear
4:33 AM 26.6 °F - 26.6 °F 100% 30.12 in 7.0 mi Calm Calm - N/A   Clear
4:53 AM 26.6 °F - 26.6 °F 100% 30.11 in 10.0 mi Calm Calm - N/A   Clear
5:12 AM 26.6 °F 22.6 °F 26.6 °F 100% 30.10 in 10.0 mi SSE 3.5 mph - N/A   Clear
5:33 AM 26.6 °F 21.2 °F 26.6 °F 100% 30.10 in 10.0 mi SSE 4.6 mph - N/A   Clear
5:52 AM 26.6 °F 21.2 °F 26.6 °F 100% 30.09 in 10.0 mi SE 4.6 mph - N/A   Clear
6:13 AM 28.4 °F 23.3 °F 26.6 °F 93% 30.09 in 10.0 mi SSE 4.6 mph - N/A   Clear
6:32 AM 28.4 °F 23.3 °F 26.6 °F 93% 30.07 in 10.0 mi SE 4.6 mph - N/A   Scattered Clouds
6:53 AM 28.4 °F 22.2 °F 26.6 °F 93% 30.06 in 10.0 mi SE 5.8 mph - N/A   Overcast
7:13 AM 28.4 °F 22.2 °F 26.6 °F 93% 30.06 in 10.0 mi SE 5.8 mph - N/A   Overcast
7:33 AM 28.4 °F 20.4 °F 26.6 °F 93% 30.05 in 10.0 mi SE 8.1 mph - N/A   Mostly Cloudy
7:52 AM 30.2 °F 23.4 °F 28.4 °F 93% 30.05 in 10.0 mi SSE 6.9 mph - N/A   Mostly Cloudy
8:13 AM 30.2 °F 24.3 °F 28.4 °F 93% 30.05 in 10.0 mi SE 5.8 mph - N/A   Scattered Clouds
8:33 AM 30.2 °F 22.6 °F 28.4 °F 93% 30.03 in 10.0 mi SE 8.1 mph - N/A   Scattered Clouds
8:52 AM 32.0 °F 23.0 °F 28.4 °F 87% 30.00 in 10.0 mi SE 11.5 mph - N/A   Scattered Clouds
9:13 AM 33.8 °F 24.3 °F 30.2 °F 87% 29.97 in 10.0 mi ESE 13.8 mph - N/A   Clear
9:33 AM 33.8 °F 25.8 °F 28.4 °F 81% 29.97 in 10.0 mi SE 10.4 mph - N/A   Scattered Clouds
9:52 AM 35.6 °F 27.5 °F 28.4 °F 75% 29.96 in 10.0 mi SE 11.5 mph 18.4 mph N/A   Scattered Clouds
10:13 AM 35.6 °F 27.5 °F 28.4 °F 75% 29.94 in 10.0 mi SE 11.5 mph - N/A   Scattered Clouds
10:33 AM 35.6 °F 26.2 °F 28.4 °F 75% 29.93 in 10.0 mi SE 15.0 mph 19.6 mph N/A   Scattered Clouds
10:52 AM 37.4 °F 29.3 °F 28.4 °F 70% 29.91 in 10.0 mi SE 12.7 mph - N/A   Clear
11:13 AM 37.4 °F 28.5 °F 28.4 °F 70% 29.89 in 10.0 mi SE 15.0 mph 20.7 mph N/A   Clear
11:33 AM 37.4 °F 28.2 °F 28.4 °F 70% 29.86 in 10.0 mi SE 16.1 mph 23.0 mph N/A   Clear
11:52 AM 37.4 °F 27.5 °F 28.4 °F 70% 29.84 in 10.0 mi SE 18.4 mph 23.0 mph N/A   Clear
12:13 PM 37.4 °F 28.2 °F 28.4 °F 70% 29.82 in 10.0 mi SE 16.1 mph 24.2 mph N/A   Clear
12:33 PM 37.4 °F 27.8 °F 28.4 °F 70% 29.80 in 10.0 mi SE 17.3 mph 23.0 mph N/A   Clear
12:52 PM 37.4 °F 27.5 °F 28.4 °F 70% 29.77 in 10.0 mi SE 18.4 mph 23.0 mph N/A   Clear
1:13 PM 37.4 °F 26.6 °F 28.4 °F 70% 29.75 in 10.0 mi ESE 21.9 mph 25.3 mph N/A   Clear
1:33 PM 37.4 °F 27.5 °F 28.4 °F 70% 29.72 in 10.0 mi ESE 18.4 mph 25.3 mph N/A   Clear
1:52 PM 39.2 °F 30.2 °F 28.4 °F 65% 29.71 in 10.0 mi SE 17.3 mph 24.2 mph N/A   Scattered Clouds
2:13 PM 39.2 °F 32.0 °F 28.4 °F 65% 29.72 in 10.0 mi SE 11.5 mph - N/A   Scattered Clouds
2:32 PM 39.2 °F 32.0 °F 28.4 °F 65% 29.71 in 10.0 mi SE 11.5 mph - N/A   Clear
2:53 PM 39.2 °F 33.0 °F 30.2 °F 70% 29.70 in 10.0 mi SE 9.2 mph - N/A   Clear
3:12 PM 39.2 °F 33.0 °F 30.2 °F 70% 29.70 in 10.0 mi SE 9.2 mph - N/A   Clear
3:33 PM 39.2 °F 32.5 °F 30.2 °F 70% 29.68 in 10.0 mi SE 10.4 mph 16.1 mph N/A   Clear
3:53 PM 39.2 °F 32.5 °F 30.2 °F 70% 29.68 in 10.0 mi SE 10.4 mph - N/A   Clear
4:13 PM 39.2 °F 32.5 °F 30.2 °F 70% 29.67 in 10.0 mi SE 10.4 mph - N/A   Clear
4:32 PM 39.2 °F 32.5 °F 30.2 °F 70% 29.65 in 10.0 mi SE 10.4 mph 18.4 mph N/A   Clear
4:53 PM 39.2 °F 32.0 °F 32.0 °F 75% 29.64 in 10.0 mi SE 11.5 mph - N/A   Clear
5:12 PM 39.2 °F 32.0 °F 32.0 °F 75% 29.63 in 10.0 mi SE 11.5 mph 16.1 mph N/A   Clear
5:33 PM 39.2 °F 33.0 °F 32.0 °F 75% 29.63 in 10.0 mi SSE 9.2 mph 18.4 mph N/A   Scattered Clouds
5:53 PM 42.8 °F 37.0 °F 33.8 °F 70% 29.62 in 10.0 mi SE 10.4 mph - N/A   Scattered Clouds
6:12 PM 41.0 °F 36.4 °F 33.8 °F 76% 29.61 in 10.0 mi SSE 6.9 mph - N/A   Scattered Clouds
6:33 PM 42.8 °F 40.1 °F 35.6 °F 76% 29.61 in 10.0 mi SSE 4.6 mph - N/A   Scattered Clouds
6:53 PM 42.8 °F 40.1 °F 35.6 °F 76% 29.61 in 10.0 mi SSE 4.6 mph - N/A   Mostly Cloudy
7:12 PM 41.0 °F 39.0 °F 35.6 °F 81% 29.60 in 10.0 mi South 3.5 mph - N/A   Mostly Cloudy
7:33 PM 41.0 °F 39.0 °F 37.4 °F 87% 29.60 in 10.0 mi South 3.5 mph - N/A   Scattered Clouds
7:53 PM 41.0 °F 39.0 °F 37.4 °F 87% 29.59 in 10.0 mi SSW 3.5 mph - N/A   Mostly Cloudy
8:12 PM 41.0 °F - 37.4 °F 87% 29.59 in 10.0 mi Calm Calm - N/A   Overcast
8:33 PM 41.0 °F 39.0 °F 37.4 °F 87% 29.60 in 10.0 mi SW 3.5 mph - N/A   Overcast
8:53 PM 41.0 °F 38.0 °F 37.4 °F 87% 29.59 in 10.0 mi SW 4.6 mph - N/A   Overcast
9:12 PM 39.2 °F 34.2 °F 37.4 °F 93% 29.59 in 10.0 mi WSW 6.9 mph - N/A Rain Light Rain
9:33 PM 41.0 °F 35.2 °F 37.4 °F 87% 29.59 in 10.0 mi WSW 9.2 mph - N/A   Scattered Clouds
9:53 PM 42.8 °F 37.0 °F 39.2 °F 87% 29.60 in 10.0 mi West 10.4 mph 17.3 mph N/A   Scattered Clouds
10:13 PM 42.8 °F 37.0 °F 39.2 °F 87% 29.61 in 10.0 mi WSW 10.4 mph - N/A   Drizzle
10:33 PM 42.8 °F 38.0 °F 41.0 °F 93% 29.62 in 10.0 mi West 8.1 mph 16.1 mph N/A Rain Light Rain
10:53 PM 42.8 °F 38.6 °F 41.0 °F 93% 29.61 in 10.0 mi West 6.9 mph - N/A Rain Rain
11:12 PM 42.8 °F 39.3 °F 41.0 °F 93% 29.61 in 10.0 mi West 5.8 mph - N/A   Overcast
11:33 PM 42.8 °F 38.6 °F 41.0 °F 93% 29.63 in 10.0 mi West 6.9 mph - N/A   Overcast
11:53 PM 42.8 °F 38.0 °F 41.0 °F 93% 29.64 in 10.0 mi West 8.1 mph - N/A   Overcast